Location: Newark
(50.0306°N, 2.3272°E)
Time: 12:12:33
(UTC+00:00)

Vanguard 1 - Pass Details

Date: 18 December 2019
Orbit: 651 x 3832 km, 34.2° (Epoch: 17 January)

Event Time Altitude Azimuth Distance (km) Brightness Sun altitude
Exits shadow 23:29:30 12° 100° (E) 6,685 14.1 -63.1°
Drops below altitude 10° 23:31:46 10° 95° (E) 6,931 14.2 -63.2°
Sets 23:39:58 0° 80° (E) 7,929 14.7 -63.3°
